PST,Max TemperatureF,Mean TemperatureF,Min TemperatureF,Max Dew PointF,MeanDew PointF,Min DewpointF,Max Humidity, Mean Humidity, Min Humidity, Max Sea Level PressureIn, Mean Sea Level PressureIn, Min Sea Level PressureIn, Max VisibilityMiles, Mean VisibilityMiles, Min VisibilityMiles, Max Wind SpeedMPH, Mean Wind SpeedMPH, Max Gust SpeedMPH,PrecipitationIn, CloudCover, Events, WindDirDegrees
2014-1-1,34,32,30,28,27,26,100,94,92,30.49,30.41,30.33,7,2,0,6,2,,0.00,8,Fog,161
2014-1-2,37,33,29,31,29,26,100,95,87,30.38,30.08,29.82,10,4,0,12,3,,0.02,8,Fog-Rain,121
2014-1-3,37,31,25,30,24,15,100,67,29,30.30,30.00,29.80,10,7,0,23,9,30,T,2,Fog,310
2014-1-4,37,29,20,21,19,17,82,65,41,30.48,30.40,30.28,10,10,10,8,5,,0.00,0,,289
2014-1-5,34,24,14,20,18,14,85,68,50,30.66,30.58,30.49,10,10,10,5,1,,0.00,0,,266
2014-1-6,32,23,14,19,18,15,85,74,64,30.54,30.40,30.23,10,10,10,4,1,,0.00,1,,337
2014-1-7,30,26,21,26,21,19,92,74,59,30.23,30.16,30.07,10,9,2,5,0,,0.18,7,Snow,197
2014-1-8,28,24,20,27,23,19,100,92,84,30.12,29.88,29.73,10,3,0,9,1,15,T,6,Fog-Snow,287
2014-1-9,37,33,29,29,23,17,100,91,79,29.96,29.80,29.69,10,7,1,8,2,,0.06,2,,23
2014-1-10,41,37,32,35,29,26,92,61,40,29.91,29.83,29.68,10,10,10,13,5,26,T,4,Rain,348
2014-1-11,46,41,35,37,31,23,92,68,32,29.61,29.44,29.36,10,10,9,28,9,40,0.03,4,Rain,272
2014-1-12,41,37,33,33,30,27,79,68,54,30.10,29.93,29.61,10,10,10,18,9,26,T,1,,360
2014-1-13,46,40,33,34,32,30,82,65,45,30.53,30.29,30.11,10,10,10,14,6,,0.00,2,,75
2014-1-14,45,35,25,35,33,30,73,61,49,30.60,30.53,30.45,10,10,10,18,11,23,0.00,0,,329
2014-1-15,41,34,26,32,30,28,85,67,52,30.57,30.48,30.38,10,10,10,14,9,20,0.00,0,,316
2014-1-16,32,29,26,34,28,25,100,88,70,30.59,30.51,30.41,10,7,0,7,1,,0.00,1,Fog,297
2014-1-17,30,28,25,31,29,26,96,86,78,30.48,30.43,30.39,10,5,0,8,3,,0.00,8,Fog,286
2014-1-18,30,28,26,29,27,26,96,94,89,30.44,30.37,30.28,10,4,0,9,2,,0.00,8,Fog,127
2014-1-19,32,30,27,26,26,25,89,82,75,30.46,30.30,30.19,10,10,10,9,3,,0.00,8,,26
2014-1-20,30,29,28,26,25,24,92,85,78,30.60,30.54,30.45,10,10,10,9,3,10,T,8,,152
2014-1-21,28,26,24,25,24,22,85,81,75,30.54,30.47,30.36,10,10,9,7,2,,0.00,8,,303
2014-1-22,30,29,27,32,25,23,100,81,75,30.49,30.42,30.39,10,10,10,8,3,,0.00,8,,23
2014-1-23,30,29,27,28,27,25,93,87,82,30.68,30.62,30.56,10,7,6,9,2,,0.00,8,,143
2014-1-24,32,31,29,28,27,25,92,85,78,30.71,30.66,30.58,10,7,2,7,2,8,T,8,Snow,169
2014-1-25,28,27,26,26,25,23,89,82,78,30.61,30.50,30.39,10,10,9,5,1,,T,8,,190
2014-1-26,29,27,24,24,23,23,82,79,75,30.40,30.36,30.29,10,10,10,6,1,,T,8,,223
2014-1-27,29,27,24,26,25,23,82,77,70,30.46,30.41,30.31,10,10,10,9,6,,T,8,,152
2014-1-28,28,28,28,29,26,25,96,82,72,30.43,30.28,30.09,10,8,2,12,7,,0.01,8,Snow,108
2014-1-29,29,25,21,29,27,20,100,93,88,30.08,29.80,29.67,10,3,0,9,3,,0.36,7,Fog-Snow,291
2014-1-30,30,26,21,27,24,20,100,92,85,29.96,29.83,29.76,10,5,0,6,2,,0.07,4,Fog,360
2014-1-31,31,19,6,27,24,19,92,81,67,30.17,30.07,29.96,10,10,6,5,1,,T,5,,15